This demonstration page uses our WeatherBlox Daily Observations layout. Learn more.

Left ArrowRight Arrow

Hourly Observations for July 24, 2021

Temp ( °F °C ) Dew Point ( °F °C ) Humidity (%) Winds ( mph kmh ) Pressure ( in mb ) Visibility ( mi km ) Precip ( " mm )
12:15 am 00:15 Mostly Cloudy 64 18 59 15 83 83 Calm 30.15 1021 10 16 0.00 0.00
12:35 am 00:35 Partly Cloudy 64 18 59 15 83 83 Calm 30.15 1021 10 16 0.00 0.00
12:55 am 00:55 Partly Cloudy 64 18 61 16 88 88 Calm 30.15 1021 10 16 0.00 0.00
1:15 am 01:15 Cloudy 68 20 59 15 73 73 Calm 30.15 1021 10 16 0.00 0.00
1:35 am 01:35 Cloudy 68 20 61 16 78 78 Calm 30.14 1021 10 16 0.00 0.00
1:55 am 01:55 Cloudy 66 19 61 16 83 83 Calm 30.14 1021 10 16 0.00 0.00
2:15 am 02:15 Cloudy 68 20 59 15 73 73 Calm 30.13 1020 10 16 0.00 0.00
2:35 am 02:35 Cloudy 64 18 59 15 83 83 Calm 30.13 1020 10 16 0.00 0.00
2:55 am 02:55 Cloudy 66 19 61 16 83 83 Calm 30.12 1020 10 16 0.00 0.00
3:15 am 03:15 Cloudy 64 18 61 16 88 88 Calm 30.12 1020 10 16 0.00 0.00
3:35 am 03:35 Cloudy 64 18 61 16 88 88 Calm 30.12 1020 10 16 0.00 0.00
3:55 am 03:55 Cloudy 64 18 61 16 88 88 Calm 30.11 1020 10 16 0.00 0.00
4:15 am 04:15 Mostly Cloudy 63 17 61 16 94 94 Calm 30.12 1020 10 16 0.00 0.00
4:35 am 04:35 Mostly Cloudy 63 17 59 15 88 88 Calm 30.12 1020 10 16 0.00 0.00
4:55 am 04:55 Cloudy 64 18 59 15 83 83 Calm 30.11 1020 10 16 0.00 0.00
5:15 am 05:15 Cloudy 63 17 59 15 88 88 Calm 30.12 1020 10 16 0.00 0.00
5:35 am 05:35 Cloudy 63 17 59 15 88 88 Calm 30.13 1020 10 16 0.00 0.00
5:55 am 05:55 Cloudy 63 17 61 16 94 94 Calm 30.12 1020 10 16 0.00 0.00
6:15 am 06:15 Mostly Cloudy 63 17 59 15 88 88 Calm 30.13 1020 10 16 0.00 0.00
6:35 am 06:35 Mostly Cloudy 63 17 59 15 88 88 Calm 30.13 1020 10 16 0.00 0.00
6:55 am 06:55 Cloudy 64 18 61 16 88 88 Calm 30.12 1020 10 16 0.00 0.00
7:15 am 07:15 Cloudy 63 17 61 16 94 94 Calm 30.13 1020 10 16 0.00 0.00
7:35 am 07:35 Mostly Cloudy 64 18 61 16 88 88 Calm 30.12 1020 10 16 0.00 0.00
7:55 am 07:55 Mostly Cloudy 66 19 61 16 83 83 Calm 30.12 1020 10 16 0.00 0.00
8:15 am 08:15 Cloudy 66 19 61 16 83 83 ENE 3 6 30.12 1020 10 16 0.00 0.00
8:35 am 08:35 Cloudy 68 20 63 17 83 83 Calm 30.12 1020 10 16 0.00 0.00
8:55 am 08:55 Cloudy 68 20 63 17 83 83 Calm 30.12 1020 10 16 0.00 0.00
9:15 am 09:15 Mostly Cloudy 70 21 63 17 78 78 ESE 3 6 30.12 1020 10 16 0.00 0.00
9:35 am 09:35 Mostly Cloudy 72 22 63 17 73 73 Calm 30.12 1020 10 16 0.00 0.00
9:55 am 09:55 Cloudy 73 23 63 17 69 69 S 7 11 30.12 1020 10 16 0.00 0.00
10:15 am 10:15 Cloudy 73 23 63 17 69 69 S 7 11 30.12 1020 10 16 0.00 0.00
10:35 am 10:35 Cloudy 73 23 64 18 74 74 S 6 9 30.11 1020 10 16 0.00 0.00
10:55 am 10:55 Cloudy 75 24 64 18 69 69 S 8 13 30.11 1019 10 16 0.00 0.00
11:15 am 11:15 Partly Cloudy 79 26 64 18 61 61 SSE 10 17 30.09 1019 10 16 0.00 0.00
11:35 am 11:35 Partly Cloudy 79 26 64 18 61 61 S 9 15 30.10 1019 10 16 0.00 0.00
11:55 am 11:55 Cloudy 79 26 64 18 61 61 S 10 17 30.10 1019 10 16 0.00 0.00
12:15 pm 12:15 Cloudy 79 26 64 18 61 61 SSW 6 9 30.10 1019 10 16 0.00 0.00
12:35 pm 12:35 Cloudy 81 27 64 18 58 58 S 8 13 30.09 1019 10 16 0.00 0.00
12:55 pm 12:55 Mostly Cloudy 81 27 64 18 58 58 S 8 13 30.09 1019 10 16 0.00 0.00
1:15 pm 13:15 Cloudy 81 27 64 18 58 58 S 8 13 30.08 1019 10 16 0.00 0.00
1:35 pm 13:35 Partly Cloudy 82 28 64 18 55 55 S 6 9 30.08 1019 10 16 0.00 0.00
1:55 pm 13:55 Partly Cloudy 82 28 64 18 55 55 S 5 7 30.08 1019 10 16 0.00 0.00
2:15 pm 14:15 Mostly Cloudy 84 29 68 20 58 58 S 6 9 30.07 1018 10 16 0.00 0.00
2:35 pm 14:35 Mostly Cloudy 86 30 66 19 52 52 S 10 17 30.06 1018 10 16 0.00 0.00
2:55 pm 14:55 Partly Cloudy 86 30 66 19 52 52 S 9 15 30.05 1018 10 16 0.00 0.00
3:15 pm 15:15 Partly Cloudy 84 29 68 20 58 58 SSW 9 15 30.05 1018 10 16 0.00 0.00
3:35 pm 15:35 Mostly Cloudy 84 29 68 20 58 58 SSW 5 7 30.05 1018 10 16 0.00 0.00
3:55 pm 15:55 Mostly Cloudy 84 29 66 19 55 55 S 9 15 30.04 1017 10 16 0.00 0.00
4:15 pm 16:15 Cloudy 84 29 68 20 58 58 SSW 8 13 30.03 1017 10 16 0.00 0.00
4:35 pm 16:35 Mostly Cloudy 86 30 68 20 55 55 SSW 10 17 30.03 1017 10 16 0.00 0.00
4:55 pm 16:55 Mostly Cloudy 86 30 68 20 55 55 SSW 9 15 30.02 1017 10 16 0.00 0.00
5:15 pm 17:15 Partly Cloudy 86 30 68 20 55 55 S 12 19 30.02 1017 10 16 0.00 0.00
5:35 pm 17:35 Mostly Cloudy 84 29 68 20 58 58 S 7 11 30.02 1017 10 16 0.00 0.00
5:55 pm 17:55 Mostly Cloudy 84 29 68 20 58 58 S 7 11 30.01 1016 10 16 0.00 0.00
6:15 pm 18:15 Mostly Cloudy 81 27 68 20 66 66 SE 7 11 30.01 1016 10 16 0.00 0.00
6:35 pm 18:35 Cloudy 79 26 68 20 70 70 ESE 9 15 30.00 1016 10 16 0.00 0.00
6:55 pm 18:55 Mostly Cloudy 79 26 68 20 70 70 ESE 7 11 30.00 1016 10 16 0.00 0.00
7:15 pm 19:15 Mostly Cloudy 79 26 68 20 70 70 ESE 10 17 30.00 1016 10 16 0.00 0.00
7:35 pm 19:35 Cloudy 77 25 68 20 74 74 SE 8 13 30.00 1016 10 16 0.00 0.00
7:55 pm 19:55 Mostly Cloudy 79 26 68 20 70 70 S 10 17 30.00 1016 10 16 0.00 0.00
8:15 pm 20:15 Partly Cloudy 81 27 68 20 66 66 S 13 20 30.00 1016 10 16 0.00 0.00
8:35 pm 20:35 Clear 79 26 68 20 70 70 SSE 13 20 30.00 1016 10 16 0.00 0.00
8:55 pm 20:55 Mostly Cloudy 79 26 68 20 70 70 SSE 15 24 30.00 1016 10 16 0.00 0.00
9:15 pm 21:15 Mostly Cloudy 79 26 68 20 70 70 S 10 17 30.01 1016 10 16 0.00 0.00
9:35 pm 21:35 Mostly Cloudy 79 26 68 20 70 70 S 9 15 30.01 1016 10 16 0.00 0.00
9:55 pm 21:55 Cloudy 77 25 68 20 74 74 S 12 19 30.01 1016 10 16 0.00 0.00
10:15 pm 22:15 Cloudy 77 25 68 20 74 74 S 10 17 30.00 1016 10 16 0.00 0.00
10:35 pm 22:35 Mostly Cloudy 77 25 68 20 74 74 S 8 13 30.00 1016 10 16 0.00 0.00
10:55 pm 22:55 Partly Cloudy 77 25 68 20 74 74 S 8 13 30.00 1016 10 16 0.00 0.00
11:15 pm 23:15 Mostly Cloudy 75 24 68 20 78 78 S 12 19 30.01 1016 10 16 0.00 0.00
11:35 pm 23:35 Cloudy 75 24 68 20 78 78 SSW 8 13 30.02 1016 10 16 0.00 0.00
11:55 pm 23:55 Mostly Cloudy 73 23 68 20 83 83 S 9 15 30.01 1016 10 16 0.00 0.00

Powered by AerisWeather